Regional Weather Roundup
Issued by NWS

Home | Current Version | Previous Version | Text Only | Print | Product List | Glossary Off
Versions: 1 2 3 4 5 6 7 8 9 10 11 12 13 14 15 16 17 18 19 20 21 22 23 24 25 26 27 28 29 30 31 32 33 34 35 36 37 38 39 40 41 42 43 44 45 46 47 48 49 50

000
ASUS43 KLSX 201359
RWRMO

WEATHER SUMMARY FOR MISSOURI
NATIONAL WEATHER SERVICE SPRINGFIELD MO
900 AM CDT SUN APR 20 2014

NOTE: "FAIR" INDICATES FEW OR NO CLOUDS BELOW 12,000 FEET WITH NO
       SIGNIFICANT WEATHER AND/OR OBSTRUCTIONS TO VISIBILITY.
       CURRENT SKY AND/OR WEATHER CONDITIONS ARE NOT AVAILABLE FOR
       CHILLICOTHE AND FARMINGTON.

MOZ001>031-035>038-043-044-053-054-201500-
...NORTHERN AND WESTERN MISSOURI...

CITY           SKY/WX    TMP DP  RH WIND       PRES   REMARKS
KANSAS CTY INT PTSUNNY   66  49  54 S12       30.09S
KANSAS C DTWN  MOSUNNY   67  50  54 S8        30.09S
LEE`S SUMMIT   MOSUNNY   64  48  56 S10       30.11F
ST JOSEPH      SUNNY     66  50  56 SW14      30.06F
CHILLICOTHE      N/A     65  48  54 SW8       30.12S
KIRKSVILLE     MOSUNNY   63  45  51 S12       30.14R

$$
MOZ066>068-077>081-088>096-101>105-201500-
...SOUTHWEST MISSOURI...

CITY           SKY/WX    TMP DP  RH WIND       PRES   REMARKS
SPRINGFIELD    MOSUNNY   64  50  60 S10       30.18S
JOPLIN         MOSUNNY   66  51  58 S14       30.17R

$$
MOZ032>034-039>042-045>050-055>058-069>072-201500-
...CENTRAL MISSOURI...

CITY           SKY/WX    TMP DP  RH WIND       PRES   REMARKS
COLUMBIA       SUNNY     65  46  50 S12       30.16S
JEFFERSON CITY SUNNY     63  46  54 SE6       30.17S
ROLLA          SUNNY     66  45  46 S12       30.18S
SEDALIA        SUNNY     67  50  54 SW10      30.15F
OSAGE BEACH    SUNNY     64  45  48 S6        30.19S

$$
MOZ051-052-059>065-201500-
...EAST CENTRAL MISSOURI...

CITY           SKY/WX    TMP DP  RH WIND       PRES   REMARKS
ST LOUIS INTL  PTSUNNY   69  42  37 S7        30.20S
SPIRIT OF STL  MOSUNNY   63  49  60 CALM      30.19S
ST CHARLES     SUNNY     63  46  54 VRB3      30.19S

$$
MOZ072>076-082>087-097>100-106>115-201500-
...SOUTH CENTRAL AND SOUTHEAST MISSOURI...

CITY           SKY/WX    TMP DP  RH WIND       PRES   REMARKS
CAPE GIRARDEAU MOSUNNY   63  46  54 SE8       30.21F
FARMINGTON     MOSUNNY   59  45  58 S3        30.24R
POPLAR BLUFF   MOSUNNY   62  45  53 CALM      30.20S
WEST PLAINS    SUNNY     63  44  50 SE5       30.22F

$$



USA.gov is the U.S. government's official web portal to all federal, state and local government web resources and services.